Content
SEND FEEDBACK

Daily
Averages
Monthly
Summary
Mexico

CANCUN, QUINTANA ROO


Home > North America > Mexico > Quintana Roo
Elevation: 9 meters     Latitude: 21 09N     Longitude: 086 49W

WEATHER
 
SELECT A DAY
Number of Records: 165,825;   Date Range: 1/1/95 - 9/29/14
 
SHARE

PRINT THIS DATA

[ ← Previous Day ]
WEATHER ALMANAC - 2 JULY, 2014
[ Next Day → ]
[ °F ]   °C
Weather ElementAverageHighLow
Temperature27.4 °C32 °C (12:46 pm)24 °C (2:43 am)
Dewpoint23.4 °C25 °C (9:47 pm)21 °C (11:41 am)
Humidity79.9 %100 % (2:43 am)52 % (11:41 am)
Barometer1015.2 hPa1016.6 hPa (10:41 am)1013.2 hPa (4:00 am)
Wind Speed6.3 km/h20.4 km/h (9:47 pm)
Weather ElementAverage
Visibility11.3 km
Wind DirectionENE (56.3 °)

Weather ElementTotal
Precipitation---
Cooling Degree Days9.7 (Base 18.3)
Growing Degree Days18 (Base 10)
Averaged from 24 records on 2 July, 2014
WEATHER CONDITIONS BREAKOUT
WIND DIRECTION BREAKOUT
WEATHER BY HOUR - 2 JULY, 2014
[ °F ]   °C
Local TimeTemperatureDewpointHumidityBarometerVisibilityWind DirectionWind SpeedGust SpeedPrecipitationEventsConditions
12:45 AM25 °C24 °C94 %1014.2 hPa11.3 kmCalmMostly Cloudy
1:44 AM24 °C24 °C100 %1014.9 hPa11.3 kmCalmMostly Cloudy
2:43 AM24 °C23 °C94 %1014.6 hPa11.3 kmCalmMostly Cloudy
3:48 AM24 °C23 °C94 %1013.2 hPa11.3 kmCalmScattered Clouds
4:47 AM24 °C23 °C94 %1013.9 hPa11.3 kmCalmPartly Cloudy
5:46 AM24 °C23 °C94 %1014.2 hPa11.3 kmCalmScattered Clouds
6:45 AM24 °C23 °C94 %1014.2 hPa11.3 kmCalmScattered Clouds
7:41 AM27 °C25 °C89 %1015.2 hPa11.3 kmCalmScattered Clouds
8:40 AM29 °C24 °C74 %1015.9 hPa11.3 kmEast (90°)11.1 km/hMostly Cloudy
9:43 AM30 °C24 °C70 %1015.2 hPa11.3 kmEast (80°)9.3 km/hMostly Cloudy
10:45 AM31 °C24 °C66 %1016.3 hPa11.3 kmSSE (150°)3.7 km/hMostly Cloudy
11:41 AM32 °C21 °C52 %1016.6 hPa11.3 kmSE (130°)18.5 km/hMostly Cloudy
12:41 PM32 °C23 °C59 %1015.6 hPa11.3 kmSE (130°)14.8 km/hMostly Cloudy
1:43 PM31 °C23 °C62 %1015.6 hPa11.3 kmESE (120°)18.5 km/hMostly Cloudy
2:45 PM31 °C23 °C62 %1015.6 hPa11.3 kmESE (120°)20.4 km/hScattered Clouds
3:42 PM31 °C23 °C62 %1014.2 hPa11.3 kmEast (100°)16.7 km/hScattered Clouds
4:42 PM29 °C24 °C74 %1014.9 hPa11.3 kmEast (90°)9.3 km/hMostly Cloudy
5:43 PM29 °C24 °C74 %1014.9 hPa11.3 kmENE (60°)5.6 km/hMostly Cloudy
6:41 PM29 °C23 °C70 %1014.2 hPa11.3 kmESE (120°)9.3 km/hMostly Cloudy
7:40 PM28 °C24 °C79 %1015.2 hPa11.3 kmEast (80°)5.6 km/hMostly Cloudy
8:42 PM27 °C24 °C84 %1015.9 hPa11.3 kmEast (80°)5.6 km/hMostly Cloudy
9:48 PM25 °C23 °C89 %1014.9 hPa11.3 kmCalmScattered Clouds
10:46 PM24 °C23 °C94 %1016.6 hPa11.3 kmCalmScattered Clouds
11:45 PM24 °C23 °C94 %1016.3 hPa11.3 kmCalmScattered Clouds
Hourly data recorded from MMUN, located 0 kilometers away from Cancun, Quintana Roo







STORIES FROM OUR PARTNERS